| time (UTC) | temp F | wind direction | speed MPH | gust MPH | rain 1hr in | rain 24hr in | rain mn in | humidity % | barometer mb |
| 20260506153017 | 56 | 335 | 21.0 | 29.0 | 0.00 | 0.00 | 0.00 | 88 | 1011.5 |
| 20260506152503 | 56 | 335 | 22.0 | 30.0 | 0.00 | 0.00 | 0.00 | 88 | 1011.6 |
| 20260506152008 | 56 | 124 | 22.0 | 30.0 | 0.00 | 0.00 | 0.00 | 88 | 1011.5 |
| 20260506151516 | 56 | 335 | 22.0 | 32.0 | 0.00 | 0.00 | 0.00 | 88 | 1011.5 |
| 20260506151008 | 56 | 335 | 23.0 | 32.0 | 0.00 | 0.00 | 0.00 | 88 | 1011.5 |
| 20260506150502 | 56 | 335 | 23.0 | 30.0 | 0.00 | 0.00 | 0.00 | 88 | 1011.5 |
| 20260506150004 | 56 | 335 | 23.0 | 31.0 | 0.00 | 0.00 | 0.00 | 88 | 1011.4 |
| 20260506145504 | 56 | 335 | 22.0 | 31.0 | 0.00 | 0.00 | 0.00 | 88 | 1011.3 |
| 20260506145004 | 56 | 335 | 22.0 | 31.0 | 0.00 | 0.00 | 0.00 | 88 | 1011.3 |
| 20260506144515 | 56 | 335 | 23.0 | 29.0 | 0.00 | 0.00 | 0.00 | 88 | 1011.3 |
| 20260506144007 | 55 | 119 | 22.0 | 29.0 | 0.00 | 0.00 | 0.00 | 88 | 1011.4 |
| 20260506143505 | 56 | 146 | 22.0 | 27.0 | 0.00 | 0.00 | 0.00 | 88 | 1011.4 |
| 20260506143023 | 56 | 335 | 21.0 | 29.0 | 0.00 | 0.00 | 0.00 | 88 | 1011.5 |
| 20260506142503 | 56 | 335 | 22.0 | 29.0 | 0.00 | 0.00 | 0.00 | 88 | 1011.5 |
| 20260506142003 | 56 | 151 | 22.0 | 29.0 | 0.00 | 0.00 | 0.00 | 87 | 1011.7 |
| 20260506141504 | 56 | 335 | 21.0 | 29.0 | 0.00 | 0.00 | 0.00 | 87 | 1011.7 |
| 20260506141007 | 56 | 335 | 21.0 | 30.0 | 0.00 | 0.00 | 0.00 | 87 | 1011.7 |
| 20260506140506 | 56 | 335 | 20.0 | 30.0 | 0.00 | 0.00 | 0.00 | 88 | 1011.8 |
| 20260506140016 | 56 | 335 | 21.0 | 29.0 | 0.00 | 0.00 | 0.00 | 88 | 1011.7 |
| 20260506135507 | 56 | 335 | 22.0 | 29.0 | 0.00 | 0.00 | 0.00 | 88 | 1011.7 |
| 20260506135009 | 56 | 335 | 20.0 | 30.0 | 0.00 | 0.00 | 0.00 | 88 | 1011.8 |
| 20260506134523 | 56 | 335 | 22.0 | 30.0 | 0.00 | 0.00 | 0.00 | 88 | 1012.0 |
| 20260506134003 | 56 | 335 | 22.0 | 29.0 | 0.00 | 0.00 | 0.00 | 88 | 1011.9 |
| 20260506133504 | 56 | 335 | 22.0 | 33.0 | 0.00 | 0.00 | 0.00 | 88 | 1011.9 |
| 20260506133008 | 55 | 121 | 21.0 | 33.0 | 0.00 | 0.00 | 0.00 | 88 | 1012.0 |
| 20260506132506 | 55 | 335 | 20.0 | 28.0 | 0.00 | 0.00 | 0.00 | 88 | 1011.8 |
| 20260506132005 | 55 | 335 | 20.0 | 27.0 | 0.00 | 0.00 | 0.00 | 89 | 1011.9 |
| 20260506131529 | 55 | 335 | 20.0 | 29.0 | 0.00 | 0.00 | 0.00 | 89 | 1011.8 |
| 20260506131007 | 55 | 335 | 21.0 | 29.0 | 0.00 | 0.00 | 0.00 | 89 | 1011.8 |
| 20260506130507 | 55 | 335 | 20.0 | 27.0 | 0.00 | 0.00 | 0.00 | 89 | 1011.8 |
| 20260506130028 | 55 | 335 | 20.0 | 26.0 | 0.00 | 0.00 | 0.00 | 89 | 1011.7 |
| 20260506125503 | 55 | 335 | 19.0 | 26.0 | 0.00 | 0.00 | 0.00 | 89 | 1011.7 |
| 20260506125003 | 55 | 335 | 19.0 | 26.0 | 0.00 | 0.00 | 0.00 | 89 | 1011.8 |
| 20260506124510 | 55 | 335 | 20.0 | 26.0 | 0.00 | 0.00 | 0.00 | 89 | 1011.8 |
| 20260506124006 | 55 | 335 | 18.0 | 27.0 | 0.00 | 0.00 | 0.00 | 89 | 1011.8 |
| 20260506123507 | 55 | 335 | 19.0 | 27.0 | 0.00 | 0.00 | 0.00 | 89 | 1011.9 |
| 20260506123020 | 55 | 335 | 18.0 | 26.0 | 0.00 | 0.00 | 0.00 | 89 | 1012.0 |
| 20260506122507 | 55 | 136 | 18.0 | 27.0 | 0.00 | 0.00 | 0.00 | 89 | 1011.9 |
| 20260506122010 | 55 | 335 | 21.0 | 27.0 | 0.00 | 0.00 | 0.00 | 89 | 1011.9 |
| 20260506121504 | 55 | 335 | 19.0 | 32.0 | 0.00 | 0.00 | 0.00 | 89 | 1012.0 |
| 20260506121004 | 55 | 335 | 19.0 | 32.0 | 0.00 | 0.00 | 0.00 | 89 | 1012.1 |
| 20260506120503 | 55 | 335 | 20.0 | 26.0 | 0.00 | 0.00 | 0.00 | 89 | 1012.1 |
| 20260506120019 | 55 | 335 | 18.0 | 28.0 | 0.00 | 0.00 | 0.00 | 90 | 1012.2 |
| 20260506115506 | 55 | 335 | 19.0 | 28.0 | 0.00 | 0.00 | 0.00 | 90 | 1012.1 |
| 20260506115007 | 55 | 335 | 18.0 | 28.0 | 0.00 | 0.00 | 0.00 | 90 | 1012.1 |
| 20260506114528 | 55 | 335 | 19.0 | 30.0 | 0.00 | 0.00 | 0.00 | 90 | 1012.0 |
| 20260506114008 | 55 | 335 | 19.0 | 30.0 | 0.00 | 0.00 | 0.00 | 90 | 1011.9 |
| 20260506113510 | 55 | 335 | 19.0 | 26.0 | 0.00 | 0.00 | 0.00 | 90 | 1011.9 |
| 20260506113023 | 55 | 335 | 19.0 | 24.0 | 0.00 | 0.00 | 0.00 | 90 | 1011.9 |
| 20260506112504 | 54 | 335 | 19.0 | 24.0 | 0.00 | 0.00 | 0.00 | 90 | 1011.8 |
| 20260506112005 | 54 | 335 | 19.0 | 26.0 | 0.00 | 0.00 | 0.00 | 90 | 1011.9 |
| 20260506111520 | 54 | 335 | 18.0 | 26.0 | 0.00 | 0.00 | 0.00 | 90 | 1012.0 |
| 20260506111008 | 54 | 335 | 21.0 | 29.0 | 0.00 | 0.00 | 0.00 | 90 | 1012.2 |
| 20260506110509 | 54 | 335 | 20.0 | 29.0 | 0.00 | 0.00 | 0.00 | 90 | 1012.2 |
| 20260506110026 | 54 | 335 | 20.0 | 28.0 | 0.00 | 0.00 | 0.00 | 90 | 1012.1 |
| 20260506105506 | 54 | 335 | 19.0 | 28.0 | 0.00 | 0.00 | 0.00 | 90 | 1012.1 |
| 20260506105004 | 54 | 335 | 20.0 | 27.0 | 0.00 | 0.00 | 0.00 | 90 | 1012.0 |
| 20260506104513 | 54 | 335 | 18.0 | 27.0 | 0.00 | 0.00 | 0.00 | 90 | 1011.9 |
| 20260506104003 | 54 | 335 | 21.0 | 27.0 | 0.00 | 0.00 | 0.00 | 90 | 1011.8 |
| 20260506103506 | 54 | 335 | 20.0 | 27.0 | 0.00 | 0.00 | 0.00 | 90 | 1011.8 |
| 20260506103026 | 54 | 335 | 21.0 | 29.0 | 0.00 | 0.00 | 0.00 | 90 | 1011.9 |
| 20260506102506 | 54 | 335 | 22.0 | 29.0 | 0.00 | 0.00 | 0.00 | 90 | 1011.9 |
| 20260506102009 | 54 | 335 | 20.0 | 28.0 | 0.00 | 0.00 | 0.00 | 90 | 1012.0 |
| 20260506101528 | 54 | 124 | 21.0 | 29.0 | 0.00 | 0.00 | 0.00 | 90 | 1011.9 |
| 20260506101008 | 54 | 335 | 22.0 | 29.0 | 0.00 | 0.00 | 0.00 | 90 | 1011.9 |
| 20260506100508 | 54 | 335 | 20.0 | 27.0 | 0.00 | 0.00 | 0.00 | 90 | 1011.9 |
| 20260506100018 | 54 | 118 | 21.0 | 28.0 | 0.00 | 0.00 | 0.00 | 90 | 1011.9 |
| 20260506095507 | 54 | 148 | 20.0 | 28.0 | 0.00 | 0.00 | 0.00 | 90 | 1011.9 |
| 20260506095008 | 54 | 335 | 20.0 | 30.0 | 0.00 | 0.00 | 0.00 | 90 | 1011.9 |
| 20260506094526 | 54 | 146 | 21.0 | 30.0 | 0.00 | 0.00 | 0.00 | 90 | 1012.1 |
| 20260506094007 | 54 | 335 | 21.0 | 32.0 | 0.00 | 0.00 | 0.00 | 90 | 1011.9 |
| 20260506093507 | 54 | 335 | 22.0 | 32.0 | 0.00 | 0.00 | 0.00 | 90 | 1011.9 |
| 20260506093029 | 54 | 154 | 20.0 | 32.0 | 0.00 | 0.00 | 0.00 | 90 | 1011.9 |
| 20260506092504 | 55 | 335 | 21.0 | 30.0 | 0.00 | 0.00 | 0.00 | 90 | 1011.8 |
| 20260506092007 | 55 | 129 | 21.0 | 30.0 | 0.00 | 0.00 | 0.00 | 90 | 1011.8 |
| 20260506091522 | 55 | 335 | 21.0 | 30.0 | 0.00 | 0.00 | 0.00 | 90 | 1011.9 |
| 20260506091008 | 55 | 123 | 22.0 | 30.0 | 0.00 | 0.00 | 0.00 | 90 | 1011.9 |
| 20260506090502 | 55 | 335 | 21.0 | 30.0 | 0.00 | 0.00 | 0.00 | 90 | 1012.0 |
| 20260506090005 | 55 | 335 | 23.0 | 30.0 | 0.00 | 0.00 | 0.00 | 90 | 1012.0 |
| 20260506085502 | 55 | 335 | 22.0 | 30.0 | 0.00 | 0.00 | 0.00 | 90 | 1012.0 |
| 20260506085003 | 55 | 335 | 23.0 | 31.0 | 0.00 | 0.00 | 0.00 | 90 | 1011.9 |
| 20260506084503 | 55 | 335 | 22.0 | 32.0 | 0.00 | 0.00 | 0.00 | 89 | 1012.0 |
| 20260506084005 | 55 | 124 | 24.0 | 32.0 | 0.00 | 0.00 | 0.00 | 89 | 1012.0 |
| 20260506083503 | 55 | 335 | 23.0 | 31.0 | 0.00 | 0.00 | 0.00 | 89 | 1012.1 |
| 20260506083004 | 55 | 134 | 23.0 | 31.0 | 0.00 | 0.00 | 0.00 | 89 | 1012.1 |
| 20260506082502 | 55 | 335 | 24.0 | 31.0 | 0.00 | 0.00 | 0.00 | 89 | 1012.0 |
| 20260506082005 | 55 | 335 | 24.0 | 32.0 | 0.00 | 0.00 | 0.00 | 89 | 1012.1 |
| 20260506081504 | 55 | 147 | 24.0 | 33.0 | 0.00 | 0.00 | 0.00 | 89 | 1012.1 |
| 20260506081002 | 55 | 335 | 24.0 | 33.0 | 0.00 | 0.00 | 0.00 | 89 | 1012.1 |
| 20260506080504 | 55 | 140 | 24.0 | 37.0 | 0.00 | 0.00 | 0.00 | 89 | 1012.1 |
| 20260506073502 | 55 | 335 | 23.0 | 33.0 | 0.00 | 0.00 | 0.00 | 88 | 1012.3 |
| 20260506073003 | 55 | 335 | 24.0 | 33.0 | 0.00 | 0.00 | 0.00 | 88 | 1012.3 |
| 20260506072504 | 55 | 335 | 24.0 | 31.0 | 0.00 | 0.00 | 0.00 | 88 | 1012.4 |
| 20260506072002 | 55 | 335 | 24.0 | 33.0 | 0.00 | 0.00 | 0.00 | 88 | 1012.4 |
| 20260506071505 | 55 | 335 | 24.0 | 33.0 | 0.00 | 0.00 | 0.00 | 88 | 1012.4 |
| 20260506071003 | 55 | 335 | 24.0 | 33.0 | 0.00 | 0.00 | 0.00 | 88 | 1012.4 |
| 20260506070503 | 55 | 335 | 23.0 | 34.0 | 0.00 | 0.00 | 0.00 | 88 | 1012.5 |
| 20260506062503 | 55 | 150 | 24.0 | 34.0 | 0.00 | 0.00 | 0.00 | 87 | 1012.4 |
| 20260506062002 | 55 | 156 | 24.0 | 34.0 | 0.00 | 0.00 | 0.00 | 87 | 1012.4 |
| 20260506061509 | 55 | 335 | 26.0 | 37.0 | 0.00 | 0.00 | 0.00 | 87 | 1012.4 |
| 20260506061007 | 55 | 335 | 25.0 | 37.0 | 0.00 | 0.00 | 0.00 | 87 | 1012.4 |
| 20260506060504 | 55 | 335 | 26.0 | 38.0 | 0.00 | 0.00 | 0.00 | 86 | 1012.3 |
| 20260506051003 | 56 | 159 | 30.0 | 42.0 | 0.00 | 0.00 | 0.00 | 86 | 1012.7 |
| 20260506050503 | 56 | 335 | 30.0 | 42.0 | 0.00 | 0.00 | 0.00 | 86 | 1012.7 |
| 20260506045005 | 56 | 335 | 29.0 | 38.0 | 0.00 | 0.00 | 0.00 | 86 | 1012.7 |
| 20260506044510 | 56 | 335 | 27.0 | 42.0 | 0.00 | 0.00 | 0.00 | 86 | 1012.7 |
| 20260506044004 | 56 | 335 | 29.0 | 42.0 | 0.00 | 0.00 | 0.00 | 86 | 1012.8 |
| 20260506043503 | 56 | 335 | 29.0 | 38.0 | 0.00 | 0.00 | 0.00 | 86 | 1012.8 |
| 20260506043014 | 56 | 335 | 27.0 | 39.0 | 0.00 | 0.00 | 0.00 | 86 | 1012.8 |
| 20260506042503 | 56 | 141 | 27.0 | 39.0 | 0.00 | 0.00 | 0.00 | 86 | 1012.8 |
| 20260506042003 | 56 | 335 | 27.0 | 38.0 | 0.00 | 0.00 | 0.00 | 86 | 1012.8 |
| 20260506041510 | 56 | 335 | 25.0 | 36.0 | 0.00 | 0.00 | 0.00 | 85 | 1012.9 |
| 20260506041003 | 56 | 335 | 26.0 | 39.0 | 0.00 | 0.00 | 0.00 | 85 | 1012.9 |
| 20260506040504 | 56 | 134 | 28.0 | 40.0 | 0.00 | 0.00 | 0.00 | 85 | 1012.9 |
| 20260506040019 | 56 | 335 | 28.0 | 40.0 | 0.00 | 0.00 | 0.00 | 85 | 1012.8 |
| 20260506035507 | 56 | 148 | 27.0 | 38.0 | 0.00 | 0.00 | 0.00 | 85 | 1012.8 |
| 20260506035004 | 56 | 146 | 27.0 | 40.0 | 0.00 | 0.00 | 0.00 | 85 | 1012.8 |
| 20260506034519 | 56 | 141 | 26.0 | 43.0 | 0.00 | 0.00 | 0.00 | 85 | 1012.7 |
| 20260506034003 | 56 | 146 | 31.0 | 43.0 | 0.00 | 0.00 | 0.00 | 85 | 1012.7 |
| 20260506033504 | 56 | 335 | 31.0 | 43.0 | 0.00 | 0.00 | 0.00 | 84 | 1012.6 |
| 20260506033014 | 56 | 155 | 31.0 | 43.0 | 0.00 | 0.00 | 0.00 | 84 | 1012.5 |
| 20260506032502 | 56 | 335 | 29.0 | 46.0 | 0.00 | 0.00 | 0.00 | 84 | 1012.4 |
| 20260506032007 | 56 | 335 | 33.0 | 46.0 | 0.00 | 0.00 | 0.00 | 84 | 1012.5 |
| 20260506031514 | 56 | 150 | 32.0 | 42.0 | 0.00 | 0.00 | 0.00 | 84 | 1012.4 |
| 20260506031004 | 56 | 145 | 33.0 | 42.0 | 0.00 | 0.00 | 0.00 | 84 | 1012.3 |
| 20260506030507 | 56 | 335 | 30.0 | 41.0 | 0.00 | 0.00 | 0.00 | 85 | 1012.5 |
| 20260506030026 | 56 | 132 | 30.0 | 37.0 | 0.00 | 0.00 | 0.00 | 85 | 1012.5 |
| 20260506025504 | 56 | 335 | 27.0 | 37.0 | 0.00 | 0.00 | 0.00 | 85 | 1012.5 |
| 20260506025004 | 56 | 130 | 25.0 | 38.0 | 0.00 | 0.00 | 0.00 | 85 | 1012.6 |
| 20260506024523 | 56 | 143 | 28.0 | 38.0 | 0.00 | 0.00 | 0.00 | 85 | 1012.7 |
| 20260506024004 | 56 | 335 | 27.0 | 40.0 | 0.00 | 0.00 | 0.00 | 84 | 1012.7 |
| 20260506023504 | 56 | 335 | 30.0 | 40.0 | 0.00 | 0.00 | 0.00 | 84 | 1012.6 |
| 20260506023016 | 56 | 143 | 30.0 | 42.0 | 0.00 | 0.00 | 0.00 | 84 | 1012.6 |
| 20260506022509 | 56 | 141 | 30.0 | 42.0 | 0.00 | 0.00 | 0.00 | 84 | 1012.6 |
| 20260506022006 | 56 | 335 | 28.0 | 43.0 | 0.00 | 0.00 | 0.00 | 84 | 1012.7 |
| 20260506021512 | 56 | 335 | 30.0 | 43.0 | 0.00 | 0.00 | 0.00 | 84 | 1012.7 |
| 20260506021006 | 56 | 335 | 27.0 | 37.0 | 0.00 | 0.00 | 0.00 | 84 | 1012.7 |
| 20260506020503 | 56 | 335 | 26.0 | 39.0 | 0.00 | 0.00 | 0.00 | 84 | 1012.7 |
| 20260506020016 | 56 | 143 | 29.0 | 41.0 | 0.00 | 0.00 | 0.00 | 84 | 1012.5 |
| 20260506015504 | 57 | 155 | 28.0 | 41.0 | 0.00 | 0.00 | 0.00 | 84 | 1012.6 |
| 20260506015005 | 57 | 335 | 27.0 | 38.0 | 0.00 | 0.00 | 0.00 | 84 | 1012.5 |
| 20260506014520 | 56 | 148 | 25.0 | 38.0 | 0.00 | 0.00 | 0.00 | 83 | 1012.4 |
| 20260506014004 | 57 | 335 | 23.0 | 38.0 | 0.00 | 0.00 | 0.00 | 83 | 1012.3 |
| 20260506013505 | 57 | 335 | 26.0 | 38.0 | 0.00 | 0.00 | 0.00 | 83 | 1012.5 |
| 20260506013023 | 57 | 335 | 27.0 | 38.0 | 0.00 | 0.00 | 0.00 | 83 | 1012.4 |
| 20260506012504 | 57 | 150 | 23.0 | 35.0 | 0.00 | 0.00 | 0.00 | 83 | 1012.3 |
| 20260506012009 | 57 | 335 | 26.0 | 38.0 | 0.00 | 0.00 | 0.00 | 82 | 1012.3 |
| 20260506011520 | 57 | 140 | 29.0 | 40.0 | 0.00 | 0.00 | 0.00 | 82 | 1012.3 |
| 20260506011008 | 57 | 335 | 29.0 | 42.0 | 0.00 | 0.00 | 0.00 | 82 | 1012.2 |
| 20260506010506 | 57 | 335 | 27.0 | 43.0 | 0.00 | 0.00 | 0.00 | 82 | 1012.2 |
| 20260506010024 | 57 | 335 | 30.0 | 46.0 | 0.00 | 0.00 | 0.00 | 81 | 1012.2 |
| 20260506005503 | 57 | 335 | 27.0 | 46.0 | 0.00 | 0.00 | 0.00 | 81 | 1012.2 |
| 20260506005005 | 57 | 335 | 30.0 | 41.0 | 0.00 | 0.00 | 0.00 | 81 | 1012.2 |
| 20260506004516 | 57 | 335 | 27.0 | 42.0 | 0.00 | 0.00 | 0.00 | 80 | 1012.1 |
| 20260506004005 | 58 | 130 | 31.0 | 42.0 | 0.00 | 0.00 | 0.00 | 80 | 1012.1 |
| 20260506003504 | 58 | 335 | 32.0 | 49.0 | 0.00 | 0.00 | 0.00 | 80 | 1012.0 |
| 20260506003020 | 58 | 335 | 35.0 | 49.0 | 0.00 | 0.00 | 0.00 | 80 | 1011.9 |
| 20260506002505 | 58 | 153 | 35.0 | 47.0 | 0.00 | 0.00 | 0.00 | 80 | 1011.9 |
| 20260506002008 | 58 | 151 | 33.0 | 43.0 | 0.00 | 0.00 | 0.00 | 80 | 1011.9 |
| 20260506001522 | 58 | 335 | 30.0 | 39.0 | 0.00 | 0.00 | 0.00 | 80 | 1011.8 |
| 20260506001005 | 58 | 145 | 28.0 | 38.0 | 0.00 | 0.00 | 0.00 | 80 | 1011.7 |
| 20260506000505 | 58 | 335 | 28.0 | 39.0 | 0.00 | 0.00 | 0.00 | 80 | 1011.6 |
| 20260506000022 | 58 | 130 | 27.0 | 39.0 | 0.00 | 0.00 | 0.00 | 80 | 1011.6 |
| 20260505235507 | 58 | 130 | 28.0 | 39.0 | 0.00 | 0.00 | 0.00 | 80 | 1011.6 |
| 20260505235006 | 58 | 125 | 27.0 | 41.0 | 0.00 | 0.00 | 0.00 | 81 | 1011.5 |
| 20260505234523 | 57 | 138 | 27.0 | 41.0 | 0.00 | 0.00 | 0.00 | 81 | 1011.4 |
| 20260505234011 | 57 | 138 | 27.0 | 39.0 | 0.00 | 0.00 | 0.00 | 81 | 1011.3 |
| 20260505233507 | 57 | 335 | 27.0 | 39.0 | 0.00 | 0.00 | 0.00 | 81 | 1011.2 |
| 20260505233022 | 57 | 155 | 29.0 | 39.0 | 0.00 | 0.00 | 0.00 | 81 | 1011.1 |
| 20260505232505 | 57 | 335 | 25.0 | 36.0 | 0.00 | 0.00 | 0.00 | 81 | 1011.1 |
| 20260505232006 | 58 | 148 | 25.0 | 41.0 | 0.00 | 0.00 | 0.00 | 81 | 1011.1 |
| 20260505231522 | 58 | 335 | 26.0 | 41.0 | 0.00 | 0.00 | 0.00 | 80 | 1011.0 |
| 20260505231013 | 58 | 153 | 25.0 | 39.0 | 0.00 | 0.00 | 0.00 | 80 | 1011.0 |
| 20260505230506 | 58 | 335 | 26.0 | 39.0 | 0.00 | 0.00 | 0.00 | 80 | 1010.9 |
| 20260505230036 | 58 | 335 | 27.0 | 39.0 | 0.00 | 0.00 | 0.00 | 80 | 1010.9 |
| 20260505225506 | 58 | 134 | 28.0 | 39.0 | 0.00 | 0.00 | 0.00 | 80 | 1010.8 |
| 20260505225006 | 58 | 135 | 29.0 | 39.0 | 0.00 | 0.00 | 0.00 | 80 | 1010.8 |
| 20260505224515 | 58 | 335 | 29.0 | 40.0 | 0.00 | 0.00 | 0.00 | 80 | 1010.6 |
| 20260505224011 | 58 | 150 | 28.0 | 40.0 | 0.00 | 0.00 | 0.00 | 80 | 1010.7 |
| 20260505223506 | 58 | 335 | 27.0 | 40.0 | 0.00 | 0.00 | 0.00 | 80 | 1010.6 |
| 20260505223028 | 59 | 335 | 30.0 | 49.0 | 0.00 | 0.00 | 0.00 | 79 | 1010.7 |
| 20260505222509 | 59 | 125 | 32.0 | 49.0 | 0.00 | 0.00 | 0.00 | 79 | 1010.7 |
| 20260505222009 | 59 | 124 | 30.0 | 45.0 | 0.00 | 0.00 | 0.00 | 79 | 1010.5 |
| 20260505221523 | 59 | 159 | 29.0 | 39.0 | 0.00 | 0.00 | 0.00 | 79 | 1010.5 |
| 20260505221010 | 59 | 335 | 28.0 | 39.0 | 0.00 | 0.00 | 0.00 | 79 | 1010.5 |
| 20260505220506 | 59 | 335 | 26.0 | 41.0 | 0.00 | 0.00 | 0.00 | 79 | 1010.5 |
| 20260505220018 | 58 | 335 | 27.0 | 41.0 | 0.00 | 0.00 | 0.00 | 79 | 1010.6 |
| 20260505215511 | 58 | 335 | 25.0 | 40.0 | 0.00 | 0.00 | 0.00 | 79 | 1010.6 |
| 20260505215007 | 58 | 130 | 26.0 | 40.0 | 0.00 | 0.00 | 0.00 | 80 | 1010.6 |
| 20260505214525 | 58 | 335 | 25.0 | 37.0 | 0.00 | 0.00 | 0.00 | 80 | 1010.5 |
| 20260505214006 | 58 | 335 | 26.0 | 42.0 | 0.00 | 0.00 | 0.00 | 79 | 1010.4 |
| 20260505213507 | 59 | 335 | 26.0 | 42.0 | 0.00 | 0.00 | 0.00 | 79 | 1010.3 |
| 20260505213028 | 58 | 168 | 25.0 | 35.0 | 0.00 | 0.00 | 0.00 | 79 | 1010.2 |
| 20260505212512 | 58 | 143 | 27.0 | 34.0 | 0.00 | 0.00 | 0.00 | 79 | 1010.1 |
| 20260505212007 | 59 | 335 | 25.0 | 39.0 | 0.00 | 0.00 | 0.00 | 79 | 1010.1 |
| 20260505211522 | 58 | 130 | 27.0 | 39.0 | 0.00 | 0.00 | 0.00 | 79 | 1010.0 |
| 20260505211008 | 58 | 335 | 26.0 | 38.0 | 0.00 | 0.00 | 0.00 | 79 | 1010.1 |
| 20260505210508 | 58 | 335 | 26.0 | 37.0 | 0.00 | 0.00 | 0.00 | 79 | 1010.1 |
| 20260505210023 | 58 | 335 | 25.0 | 37.0 | 0.00 | 0.00 | 0.00 | 79 | 1010.1 |
| 20260505205509 | 59 | 335 | 27.0 | 34.0 | 0.00 | 0.00 | 0.00 | 79 | 1010.1 |
| 20260505205011 | 58 | 335 | 27.0 | 35.0 | 0.00 | 0.00 | 0.00 | 79 | 1010.0 |
| 20260505204528 | 58 | 136 | 27.0 | 35.0 | 0.00 | 0.00 | 0.00 | 80 | 1009.9 |
| 20260505204009 | 58 | 128 | 25.0 | 35.0 | 0.00 | 0.00 | 0.00 | 80 | 1010.0 |
| 20260505203506 | 58 | 124 | 26.0 | 35.0 | 0.00 | 0.00 | 0.00 | 80 | 1010.0 |
| 20260505203039 | 58 | 130 | 27.0 | 34.0 | 0.00 | 0.00 | 0.00 | 80 | 1010.0 |
| 20260505202508 | 58 | 128 | 24.0 | 33.0 | 0.00 | 0.00 | 0.00 | 80 | 1010.0 |
| 20260505202009 | 58 | 335 | 26.0 | 34.0 | 0.00 | 0.00 | 0.00 | 81 | 1010.0 |
| 20260505201527 | 58 | 335 | 26.0 | 34.0 | 0.00 | 0.00 | 0.00 | 81 | 1010.0 |
| 20260505201007 | 58 | 335 | 25.0 | 32.0 | 0.00 | 0.00 | 0.00 | 81 | 1010.1 |
| 20260505200504 | 58 | 335 | 22.0 | 30.0 | 0.00 | 0.00 | 0.00 | 81 | 1010.2 |
| 20260505200031 | 58 | 335 | 23.0 | 29.0 | 0.00 | 0.00 | 0.00 | 81 | 1010.3 |
| 20260505195502 | 58 | 335 | 20.0 | 29.0 | 0.00 | 0.00 | 0.00 | 81 | 1010.4 |
| 20260505195003 | 58 | 335 | 21.0 | 28.0 | 0.00 | 0.00 | 0.00 | 81 | 1010.5 |
| 20260505194506 | 58 | 335 | 21.0 | 31.0 | 0.00 | 0.00 | 0.00 | 81 | 1010.5 |
| 20260505194005 | 58 | 123 | 23.0 | 31.0 | 0.00 | 0.00 | 0.00 | 81 | 1010.4 |
| 20260505193504 | 58 | 121 | 22.0 | 29.0 | 0.00 | 0.00 | 0.00 | 81 | 1010.6 |
| 20260505193011 | 58 | 123 | 22.0 | 29.0 | 0.00 | 0.00 | 0.00 | 81 | 1010.7 |
| 20260505192510 | 58 | 119 | 20.0 | 26.0 | 0.00 | 0.00 | 0.00 | 81 | 1010.7 |
| 20260505192008 | 58 | 335 | 19.0 | 28.0 | 0.00 | 0.00 | 0.00 | 81 | 1010.8 |
| 20260505191504 | 58 | 127 | 20.0 | 28.0 | 0.00 | 0.00 | 0.00 | 81 | 1010.9 |
| 20260505191003 | 58 | 335 | 19.0 | 25.0 | 0.00 | 0.00 | 0.00 | 81 | 1010.9 |
| 20260505190507 | 58 | 116 | 19.0 | 29.0 | 0.00 | 0.00 | 0.00 | 81 | 1011.2 |
| 20260505190008 | 58 | 335 | 21.0 | 29.0 | 0.00 | 0.00 | 0.00 | 81 | 1011.2 |
| 20260505185503 | 58 | 133 | 20.0 | 28.0 | 0.00 | 0.00 | 0.00 | 82 | 1011.2 |
| 20260505185007 | 58 | 119 | 21.0 | 26.0 | 0.00 | 0.00 | 0.00 | 81 | 1011.4 |
| 20260505184523 | 58 | 111 | 19.0 | 29.0 | 0.00 | 0.00 | 0.00 | 82 | 1011.5 |
| 20260505184009 | 58 | 118 | 19.0 | 29.0 | 0.00 | 0.00 | 0.00 | 82 | 1011.6 |
| 20260505183506 | 58 | 133 | 20.0 | 27.0 | 0.00 | 0.00 | 0.00 | 82 | 1011.6 |
| 20260505183005 | 58 | 130 | 19.0 | 24.0 | 0.00 | 0.00 | 0.00 | 82 | 1011.6 |
| 20260505182503 | 58 | 335 | 20.0 | 25.0 | 0.00 | 0.00 | 0.00 | 82 | 1011.6 |
| 20260505182003 | 58 | 114 | 17.0 | 25.0 | 0.00 | 0.00 | 0.00 | 82 | 1011.8 |
| 20260505181512 | 58 | 121 | 18.0 | 23.0 | 0.00 | 0.00 | 0.00 | 82 | 1011.8 |
| 20260505181004 | 58 | 137 | 17.0 | 23.0 | 0.00 | 0.00 | 0.00 | 82 | 1011.8 |
| 20260505180514 | 58 | 134 | 16.0 | 22.0 | 0.00 | 0.00 | 0.00 | 82 | 1011.9 |
| 20260505180020 | 58 | 128 | 17.0 | 21.0 | 0.00 | 0.00 | 0.00 | 82 | 1011.9 |
| 20260505175508 | 58 | 108 | 15.0 | 22.0 | 0.00 | 0.00 | 0.00 | 82 | 1012.0 |
| 20260505175007 | 58 | 118 | 15.0 | 22.0 | 0.00 | 0.00 | 0.00 | 82 | 1012.1 |
| 20260505174508 | 57 | 124 | 15.0 | 22.0 | 0.00 | 0.00 | 0.00 | 82 | 1012.2 |
| 20260505174004 | 57 | 141 | 15.0 | 21.0 | 0.00 | 0.00 | 0.00 | 82 | 1012.2 |
| 20260505173507 | 57 | 138 | 15.0 | 21.0 | 0.00 | 0.00 | 0.00 | 82 | 1012.2 |
| 20260505173034 | 57 | 132 | 16.0 | 21.0 | 0.00 | 0.00 | 0.00 | 82 | 1012.1 |
| 20260505172505 | 57 | 136 | 15.0 | 21.0 | 0.00 | 0.00 | 0.00 | 83 | 1012.2 |
| 20260505172008 | 57 | 127 | 15.0 | 21.0 | 0.00 | 0.00 | 0.00 | 83 | 1012.3 |
| 20260505171523 | 57 | 335 | 15.0 | 20.0 | 0.00 | 0.00 | 0.00 | 83 | 1012.2 |
| 20260505171010 | 57 | 335 | 15.0 | 21.0 | 0.00 | 0.00 | 0.00 | 83 | 1012.3 |
| 20260505170503 | 57 | 335 | 14.0 | 21.0 | 0.00 | 0.00 | 0.00 | 83 | 1012.3 |
| 20260505170013 | 57 | 335 | 15.0 | 21.0 | 0.00 | 0.00 | 0.00 | 82 | 1012.3 |
| 20260505165503 | 57 | 130 | 15.0 | 21.0 | 0.00 | 0.00 | 0.00 | 82 | 1012.3 |
| 20260505165006 | 57 | 335 | 14.0 | 20.0 | 0.00 | 0.00 | 0.00 | 82 | 1012.4 |
| 20260505164540 | 58 | 125 | 13.0 | 19.0 | 0.00 | 0.00 | 0.00 | 82 | 1012.5 |
| 20260505164007 | 58 | 123 | 13.0 | 17.0 | 0.00 | 0.00 | 0.00 | 81 | 1012.5 |
| 20260505163508 | 58 | 117 | 11.0 | 15.0 | 0.00 | 0.00 | 0.00 | 82 | 1012.6 |
| 20260505163025 | 58 | 120 | 11.0 | 15.0 | 0.00 | 0.00 | 0.00 | 81 | 1012.7 |
| 20260505162510 | 58 | 335 | 11.0 | 15.0 | 0.00 | 0.00 | 0.00 | 81 | 1012.7 |
| 20260505162004 | 58 | 136 | 11.0 | 15.0 | 0.00 | 0.00 | 0.00 | 81 | 1012.9 |
| 20260505161509 | 58 | 335 | 10.0 | 15.0 | 0.00 | 0.00 | 0.00 | 81 | 1012.9 |
| 20260505161007 | 58 | 335 | 9.0 | 12.0 | 0.00 | 0.00 | 0.00 | 81 | 1013.0 |
| 20260505160507 | 58 | 335 | 5.0 | 10.0 | 0.00 | 0.00 | 0.00 | 82 | 1013.0 |